Weather History for Bowling Green, KY

Change the Weather History Date:

Friday, October 5, 2012

  Actual Average Record
Temperature  
Mean Temperature 65 °F 62 °F  
Max Temperature 81 °F 75 °F 93 °F (1951)
Min Temperature 48 °F 50 °F 31 °F (1968)
Degree Days  
Heating Degree Days 0 5  
Month to date heating degree days 8 21  
Since 1 July heating degree days 41 57  
Cooling Degree Days 0 2  
Month to date cooling degree days 1 11  
Year to date cooling degree days 1924 1466  
Growing Degree Days 16 (Base 50)    
Moisture  
Dew Point 54 °F    
Average Humidity 73    
Maximum Humidity 100    
Minimum Humidity 45    
Precipitation  
Precipitation T in 0.11 in 3.99 in (1995)
Month to date precipitation 1.28 0.57  
Year to date precipitation 32.76 38.06  
Snow  
Snow 0.00 in 0.00 in 0.00 in ()
Month to date snowfall 0.0 0.0  
Since 1 July snowfall 0.0 0.0  
Since 1 September snowfall 0.0 0.0  
Snow Depth 0.00 in    
Sea Level Pressure  
Sea Level Pressure 30.13 in    
Wind  
Wind Speed 6 mph (WSW)    
Max Wind Speed 17 mph    
Max Gust Speed 28 mph    
Visibility 4 miles    
Events Fog    
T = Trace of Precipitation, MM = Missing Value Source: NWS Daily Summary

Daily Weather History Graph

Daily Weather History Graph

Search for Another Location

Airport:

Trip Planner

Search our weather history database for the weather conditions in past years. The results will help you decide how hot, cold, wet, or windy it might be!

Date:

Astronomy

Oct. 05, 2012 Rise Set
Actual Time 6:44 AM CDT 6:22 PM CDT
Civil Twilight 6:18 AM CDT 6:48 PM CDT
Nautical Twilight 5:48 AM CDT 7:18 PM CDT
Astronomical Twilight 5:18 AM CDT 7:48 PM CDT
Moon 9:52 PM CDT (10/5) 11:45 AM CDT (10/5)
Length of Visible Light 12h 29m
Length of Day
11h 37m
Waning Gibbous, 74% of the Moon is Illuminated
Oct 5
Waning Gibbous
Oct 8
Last Quarter
Oct 15
New
Oct 21
First Quarter
Oct 29
Full

Hourly Weather History & Observations

Time (CDT) Temp. Heat Index Dew Point Humidity Pressure Visibility Wind Dir Wind Speed Gust Speed Precip Events Conditions
12:40 AM 57.2 °F - 55.4 °F 94% 30.19 in 1.8 mi Calm Calm - N/A   Clear
12:47 AM 57.2 °F - 55.4 °F 94% 30.19 in 3.0 mi Calm Calm - N/A   Clear
12:53 AM 57.9 °F - 55.9 °F 93% 30.18 in 5.0 mi Calm Calm - N/A   Clear
1:36 AM 57.2 °F - 55.4 °F 94% 30.19 in 2.0 mi Calm Calm - N/A   Clear
1:51 AM 57.2 °F - 55.4 °F 94% 30.19 in 1.2 mi Calm Calm - N/A   Clear
1:53 AM 57.0 °F - 55.0 °F 93% 30.18 in 1.2 mi Calm Calm - N/A   Clear
2:05 AM 57.2 °F - 55.4 °F 94% 30.19 in 1.8 mi Calm Calm - N/A   Clear
2:10 AM 57.2 °F - 55.4 °F 94% 30.18 in 0.8 mi Calm Calm - N/A   Clear
2:17 AM 57.2 °F - 55.4 °F 94% 30.18 in 0.2 mi Calm Calm - N/A Fog Fog
2:25 AM 55.4 °F - 53.6 °F 94% 30.18 in 1.0 mi Calm Calm - N/A   Clear
2:34 AM 55.4 °F - 53.6 °F 94% 30.18 in 0.5 mi Calm Calm - N/A Fog Fog
2:47 AM 55.4 °F - 53.6 °F 94% 30.17 in 1.0 mi Calm Calm - N/A   Clear
2:51 AM 55.4 °F - 53.6 °F 94% 30.17 in 2.5 mi Calm Calm - N/A   Clear
2:58 AM 55.4 °F - 53.6 °F 94% 30.17 in 1.8 mi Calm Calm - N/A   Clear
3:03 AM 57.2 °F - 55.4 °F 94% 30.17 in 0.8 mi Calm Calm - N/A   Clear
3:11 AM 57.2 °F - 55.4 °F 94% 30.17 in 0.5 mi Calm Calm - N/A Fog Fog
3:17 AM 55.4 °F - 55.4 °F 100% 30.16 in 1.0 mi Calm Calm - N/A   Clear
3:20 AM 55.4 °F - 53.6 °F 94% 30.16 in 2.0 mi Calm Calm - N/A   Clear
3:29 AM 55.4 °F - 53.6 °F 94% 30.16 in 8.0 mi Calm Calm - N/A   Clear
3:53 AM 55.9 °F - 54.0 °F 93% 30.15 in 4.0 mi Calm Calm - N/A   Clear
4:30 AM 55.4 °F - 53.6 °F 94% 30.17 in 1.8 mi Calm Calm - N/A   Clear
4:39 AM 53.6 °F - 51.8 °F 94% 30.17 in 3.0 mi Calm Calm - N/A   Clear
4:53 AM 55.0 °F - 53.1 °F 93% 30.16 in 6.0 mi Calm Calm - N/A   Clear
5:45 AM 55.4 °F - 53.6 °F 94% 30.17 in 1.8 mi Calm Calm - N/A   Clear
5:53 AM 54.0 °F - 53.1 °F 97% 30.17 in 0.8 mi Calm Calm - N/A   Clear
6:00 AM 53.6 °F - 51.8 °F 94% 30.17 in 0.2 mi Calm Calm - N/A Fog Fog
6:08 AM 53.6 °F - 51.8 °F 94% 30.17 in 1.0 mi Calm Calm - N/A   Clear
6:11 AM 53.6 °F - 51.8 °F 94% 30.17 in 2.5 mi Calm Calm - N/A   Clear
6:21 AM 53.6 °F - 51.8 °F 94% 30.17 in 1.2 mi Calm Calm - N/A   Clear
6:32 AM 55.4 °F - 53.6 °F 94% 30.17 in 0.8 mi Calm Calm - N/A   Clear
6:41 AM 55.4 °F - 53.6 °F 94% 30.17 in 1.8 mi Calm Calm - N/A   Clear
6:49 AM 53.6 °F - 53.6 °F 100% 30.17 in 0.8 mi Calm Calm - N/A   Clear
6:53 AM 53.1 °F - 52.0 °F 96% 30.16 in 0.2 mi Calm Calm - N/A Fog Fog
7:21 AM 55.4 °F - 53.6 °F 94% 30.17 in 1.0 mi Calm Calm - N/A   Clear
7:32 AM 55.4 °F - 53.6 °F 94% 30.16 in 2.0 mi Calm Calm - N/A   Clear
7:53 AM 59.0 °F - 57.0 °F 93% 30.15 in 4.0 mi Calm Calm - N/A   Clear
8:53 AM 66.9 °F - 60.1 °F 79% 30.14 in 9.0 mi SSW 6.9 mph - N/A   Clear
9:53 AM 72.0 °F - 62.1 °F 71% 30.14 in 10.0 mi SW 9.2 mph - N/A   Clear
10:53 AM 77.0 °F - 63.0 °F 62% 30.13 in 10.0 mi West 8.1 mph - N/A   Clear
12:53 PM 78.1 °F - 55.9 °F 46% 30.08 in 10.0 mi SSW 11.5 mph 18.4 mph N/A   Scattered Clouds
1:53 PM 79.0 °F - 59.0 °F 50% 30.04 in 10.0 mi WSW 6.9 mph - N/A   Mostly Cloudy
2:53 PM 80.1 °F 80.4 °F 57.0 °F 45% 30.01 in 10.0 mi SW 10.4 mph - N/A   Scattered Clouds
3:53 PM 79.0 °F - 57.0 °F 47% 30.00 in 10.0 mi SW 9.2 mph - N/A   Overcast
4:53 PM 78.1 °F - 57.0 °F 48% 29.98 in 10.0 mi SW 6.9 mph - N/A   Overcast
5:53 PM 75.9 °F - 57.9 °F 54% 29.99 in 10.0 mi SW 5.8 mph - N/A   Mostly Cloudy
6:53 PM 73.9 °F - 59.0 °F 59% 29.98 in 10.0 mi WSW 3.5 mph - N/A   Partly Cloudy
7:53 PM 73.9 °F - 60.1 °F 62% 29.96 in 10.0 mi SSW 5.8 mph - N/A   Overcast
8:53 PM 63.0 °F - 55.0 °F 75% 30.00 in 10.0 mi NW 9.2 mph 18.4 mph N/A   Overcast
9:45 PM 55.4 °F - 50.0 °F 82% 30.04 in 10.0 mi NW 11.5 mph 20.7 mph N/A   Overcast
9:53 PM 55.0 °F - 48.9 °F 80% 30.02 in 10.0 mi NNW 10.4 mph 18.4 mph N/A   Overcast
10:53 PM 52.0 °F - 45.0 °F 77% 30.05 in 10.0 mi North 11.5 mph 20.7 mph 0.00 in   Overcast
11:53 PM 50.0 °F - 43.0 °F 77% 30.07 in 10.0 mi North 12.7 mph 20.7 mph N/A   Overcast